AZERSPACE 1

Last updated on Sat Oct 18 2025 00:02:53 GMT+0000 (Coordinated Universal Time)

1 39079U 13006B 25290.70662380 .00000124 00000+0 00000+0 0 9993 2 39079 0.0147 172.2910 0001831 55.9913 98.5718 1.00268615 46376
UTC large
Height (km)
Speed (km/s)
/
Latitude / Longitude
Inclination (degrees)
Orbital Period (minutes)
Azimuth
Elevation
Range (km)
Doppler Factor

Next 0 passes for location: London (51.5072 / 0.1276)

Sorry there are no passes over London.